Theta_e
316 321 323 324 325 324 320 321 323 323 325 327 329 330 328 326 324 325 326 318 313 316 321 318 317 316 316 316 313 311 311 309 309 310 309 310 311 311 311 312 313 313 313 312 310 311 311 311 311 311 312 312 311 311 311 311 311 311 311 312 313 314 314 314 319 321 320 320 321 321 321 320 318 317 318 320 321 319 316 317 319 319 320 321 322 322
317 322 325 326 323 321 320 319 318 318 319 320 321 322 323 324 324 324 323 318 312 315 323 321 318 317 315 315 313 311 310 309 310 309 310 311 311 311 312 312 313 312 312 311 310 310 310 310 310 311 311 311 311 311 311 311 310 311 312 312 313 315 317 315 316 319 321 322 322 321 321 319 318 318 320 319 319 316 315 317 319 318 320 321 321 321
319 322 323 320 316 316 318 317 316 317 318 319 320 319 322 325 324 322 322 319 313 315 323 324 319 317 317 316 313 311 310 312 313 313 313 313 312 311 312 312 312 312 311 311 310 310 310 310 310 310 311 311 311 311 311 311 310 311 313 313 313 316 319 318 317 318 319 320 320 320 319 318 318 318 319 318 316 316 316 317 317 318 320 320 320 320
323 327 322 314 313 317 320 318 317 318 319 320 320 319 322 325 323 324 323 319 316 317 320 322 318 316 315 316 315 313 312 313 315 315 315 314 314 313 314 314 313 312 312 311 311 310 310 310 310 310 311 311 311 310 310 311 311 312 313 314 314 315 318 318 317 315 315 317 317 317 317 317 317 317 316 316 315 314 315 316 317 318 318 317 316 315
325 326 317 313 316 319 320 320 319 319 321 322 322 320 322 325 324 324 323 321 323 323 320 318 320 321 320 319 318 316 313 314 314 315 315 315 315 314 313 313 314 313 313 312 311 311 310 310 310 310 311 311 311 310 310 311 311 312 312 314 315 315 317 317 315 313 315 315 315 316 317 317 316 315 315 315 314 312 313 316 317 315 313 311 309 307
322 318 315 318 320 319 319 321 322 322 322 323 324 322 322 325 324 323 322 322 326 329 323 318 324 332 330 323 321 320 319 319 316 313 313 316 316 314 313 312 312 312 312 312 312 312 312 310 310 310 310 310 311 310 310 311 311 313 312 313 314 315 316 316 313 314 315 314 313 315 316 315 314 314 313 313 312 311 313 315 313 308 306 305 305 304
320 316 316 322 323 322 321 320 323 322 320 323 326 324 323 322 323 322 322 322 327 330 322 318 325 331 326 322 325 325 325 325 319 314 314 316 317 315 314 313 312 311 311 310 311 311 311 311 310 310 310 310 311 310 310 310 311 313 312 313 312 312 313 313 314 316 316 314 314 315 314 313 313 312 312 312 312 313 313 310 306 304 304 303 302 302
319 319 318 320 323 325 322 321 323 320 321 327 326 325 325 322 323 324 322 323 326 326 323 322 324 325 323 323 325 323 322 323 320 318 316 315 316 316 315 314 312 312 312 311 311 311 311 311 311 311 311 311 310 310 310 310 311 312 312 312 311 310 312 314 315 315 314 313 313 312 311 312 312 311 312 313 313 311 308 305 303 303 302 300 300 300
318 323 322 320 322 322 323 325 324 319 322 327 323 324 327 325 328 330 326 326 324 323 326 325 322 323 325 326 325 322 322 323 322 322 319 315 316 316 316 315 313 312 312 312 312 312 312 311 311 311 310 310 310 309 309 310 310 311 312 312 311 311 312 315 315 314 313 312 310 309 309 311 312 312 312 312 309 306 304 303 302 301 300 299 298 298
317 318 318 320 321 322 325 326 322 320 321 320 319 323 327 326 328 330 328 327 327 324 326 326 323 324 326 327 326 323 323 325 323 322 318 314 316 317 316 315 314 312 311 311 312 312 312 312 311 311 310 309 309 309 309 309 309 311 312 312 312 312 312 313 314 313 312 310 309 308 309 310 311 311 309 307 305 303 302 302 301 300 299 298 298 297
316 313 313 317 319 318 321 318 314 318 317 315 322 329 330 329 328 330 327 325 327 325 324 326 324 323 325 328 328 325 326 327 325 325 323 317 317 317 316 316 314 313 312 311 311 311 310 310 310 310 309 309 309 309 309 309 310 311 312 312 313 312 312 312 312 312 311 310 309 309 309 310 310 307 305 304 303 303 301 300 300 299 298 297 297 297
317 316 315 315 315 313 318 317 313 315 314 318 331 332 329 330 329 328 327 325 326 327 326 325 321 320 324 327 328 325 325 326 324 327 329 322 318 317 317 316 315 314 313 311 311 310 310 309 309 309 309 309 309 309 309 309 310 311 312 311 312 313 312 312 312 311 311 310 310 309 309 309 307 304 304 304 303 302 301 300 299 298 298 297 297 296
320 322 317 314 313 314 321 323 318 318 318 322 330 327 325 327 327 327 327 325 326 325 321 318 318 321 322 323 324 323 323 325 320 318 320 318 316 317 317 316 316 314 313 312 311 310 309 309 309 309 309 308 308 308 308 309 310 311 311 311 312 313 312 312 313 311 310 310 309 309 309 307 304 303 303 303 302 301 300 300 299 299 298 298 297 296
323 324 318 316 317 316 319 322 321 321 320 321 324 325 326 326 327 331 329 324 325 325 318 314 318 323 323 323 323 321 320 321 317 313 314 314 314 316 316 316 315 314 313 312 311 311 310 310 309 309 309 308 308 308 308 309 310 310 311 312 312 313 312 312 313 312 310 310 309 308 307 304 303 303 302 301 301 301 300 299 299 299 299 298 297 296
324 324 321 319 319 317 317 318 321 323 319 319 322 323 325 328 330 331 329 328 329 327 320 315 320 327 328 326 320 314 312 313 313 314 314 312 313 314 314 314 314 313 313 312 311 311 310 310 309 309 309 309 308 307 308 309 310 310 311 312 312 312 312 312 312 312 310 308 307 306 305 303 302 302 301 300 300 300 299 299 298 298 298 297 297 296
320 324 324 318 315 317 317 316 318 321 320 319 321 322 324 326 327 324 325 326 325 325 322 319 323 327 325 322 316 311 311 310 310 311 312 311 311 311 312 313 313 313 313 312 311 310 310 309 309 309 309 309 308 307 308 309 309 309 311 313 312 312 311 311 312 311 309 307 306 304 303 303 302 301 300 300 299 299 299 298 298 297 297 296 296 296
321 325 321 314 314 315 315 315 315 318 322 319 319 322 322 321 322 324 324 320 319 323 324 321 324 325 322 321 318 317 318 314 311 310 309 310 310 309 310 311 312 313 312 312 311 310 310 309 309 309 309 309 308 307 307 308 308 309 312 313 313 312 311 312 311 310 308 306 304 303 303 302 301 300 299 299 298 298 298 297 297 297 296 296 296 296
324 326 319 315 318 314 311 314 313 313 318 321 321 321 318 318 323 327 326 324 324 325 324 322 323 324 324 324 321 319 319 320 319 314 308 308 309 309 310 311 311 312 312 311 311 310 309 309 308 308 308 308 308 307 307 308 308 310 312 312 312 312 311 311 311 308 307 305 303 303 302 301 300 299 298 298 298 298 297 297 296 296 296 296 296 296
323 324 319 315 318 314 311 316 317 313 313 318 321 319 320 325 326 323 324 327 328 327 326 325 322 322 322 323 323 321 323 327 324 317 313 311 308 308 311 311 310 310 311 311 310 310 308 308 308 307 307 307 307 306 306 307 308 310 311 311 311 311 311 311 310 308 306 305 303 302 302 300 299 298 298 297 297 297 297 297 296 296 296 296 296 296
321 321 322 315 313 314 314 317 321 319 313 314 316 316 319 325 325 323 324 325 326 327 328 327 324 325 324 323 325 323 324 329 325 322 322 313 308 310 313 312 310 310 311 311 311 310 309 308 307 307 307 307 306 305 306 307 307 309 311 311 311 311 311 311 310 307 305 304 303 302 301 300 298 298 297 297 297 297 297 297 297 297 296 296 296 295
321 320 322 316 312 315 318 318 320 320 316 316 318 318 318 319 320 322 322 322 325 327 329 327 325 327 326 323 323 323 324 326 325 327 324 313 311 316 315 313 312 310 311 312 311 310 308 308 307 307 306 306 306 305 305 306 307 308 310 310 311 311 311 311 309 306 304 303 302 302 300 299 298 297 297 296 296 296 296 296 296 296 296 296 296 295
320 322 325 320 315 317 322 319 315 316 317 317 318 319 319 318 320 323 322 321 322 323 328 329 324 325 327 322 321 324 326 323 319 319 317 313 316 319 316 315 314 310 310 312 311 310 308 307 307 307 306 306 306 305 305 306 306 308 309 310 310 311 311 310 307 305 304 303 302 301 300 299 298 297 297 296 296 296 296 296 296 296 295 295 295 295
319 324 326 323 317 318 319 314 310 313 317 317 318 321 319 318 320 324 324 323 322 321 323 325 323 324 324 322 322 322 320 315 311 311 311 315 319 319 316 316 314 310 310 310 311 310 308 308 307 306 306 307 307 306 305 305 306 307 309 309 310 311 310 309 307 304 303 302 302 300 299 299 298 297 296 296 296 296 296 296 296 296 295 295 295 295
318 323 324 322 320 320 320 316 312 313 316 317 319 321 320 318 319 322 324 323 324 324 322 322 324 322 319 319 315 310 308 308 309 310 310 314 318 317 315 316 314 311 309 309 310 309 308 308 307 306 307 307 307 307 305 305 306 307 308 309 310 311 310 308 306 304 303 302 301 300 299 298 297 297 296 296 296 296 296 296 295 295 295 295 295 295
319 323 325 324 324 323 323 322 318 315 316 318 320 319 317 318 318 320 321 320 321 324 323 323 325 321 321 321 313 307 309 310 308 310 311 312 316 317 315 315 314 312 310 310 310 309 308 308 307 307 308 308 308 307 306 306 306 306 308 310 310 311 310 307 305 304 303 302 301 299 299 298 297 297 296 296 296 296 296 296 295 295 295 295 295 294
320 323 323 323 325 324 324 323 321 317 315 318 320 318 316 318 319 319 320 320 321 322 321 322 323 321 321 320 316 315 316 314 311 311 311 312 314 316 315 315 315 314 312 311 310 309 309 308 308 308 308 308 308 307 306 305 306 306 308 309 310 310 309 306 304 303 302 302 300 299 299 298 297 297 296 296 296 296 296 295 295 295 295 295 295 294
323 323 320 321 323 322 322 323 322 320 317 318 319 318 317 317 318 319 320 321 322 322 322 321 321 322 321 318 319 321 320 321 319 312 310 312 314 315 317 316 315 314 312 310 309 309 309 309 310 309 309 309 308 306 306 305 305 306 308 309 310 310 307 305 304 303 302 301 300 299 299 298 297 297 296 296 296 296 295 295 295 295 295 295 294 294
327 323 320 322 322 320 321 323 321 319 319 319 318 318 318 317 317 318 319 320 322 323 323 321 320 322 321 318 321 323 322 325 320 310 309 314 316 316 317 315 314 313 311 310 310 310 311 311 311 310 309 309 308 306 306 305 305 306 307 309 309 308 307 305 303 303 302 301 300 299 299 298 297 297 296 296 296 296 295 295 295 295 295 294 294 293
325 323 321 322 322 320 320 321 320 319 319 319 318 317 317 317 316 317 318 318 321 322 321 321 323 323 320 319 321 320 318 319 317 314 314 316 315 315 315 314 314 314 312 312 312 312 312 311 311 311 311 309 308 307 306 306 305 306 307 308 308 307 306 304 303 303 301 301 300 299 299 298 297 296 296 295 295 295 295 295 294 294 294 294 293 293
320 323 322 322 321 321 320 320 321 320 318 318 318 317 317 317 316 316 317 317 319 320 320 320 322 321 319 322 324 319 315 316 315 315 315 314 314 314 314 315 316 315 314 314 314 313 313 312 311 311 310 310 309 308 307 306 306 306 306 307 307 307 305 304 303 302 301 301 300 299 299 298 297 296 295 295 295 295 295 294 294 294 293 293 292 292
316 321 322 321 321 322 321 320 321 321 319 319 319 317 316 316 316 316 316 317 317 318 318 318 320 319 317 319 321 316 314 316 315 314 313 313 314 314 314 314 315 316 316 316 316 314 312 311 310 309 309 311 310 309 308 307 306 306 306 306 307 306 305 304 303 302 301 301 300 299 299 298 297 296 295 295 294 294 294 293 293 293 292 292 292 291
315 318 319 320 322 322 321 321 321 320 319 319 319 319 317 316 316 315 315 316 316 317 318 317 318 318 316 317 317 314 314 313 312 312 313 314 315 314 313 314 315 316 316 317 316 315 312 311 311 310 311 311 311 310 309 308 307 306 306 306 306 306 305 304 303 302 301 301 300 299 298 298 297 296 295 295 294 294 293 293 292 292 292 291 291 291
315 317 318 320 322 321 321 322 321 319 318 318 319 319 317 316 316 315 315 316 315 316 318 318 318 317 317 319 318 318 318 314 311 313 314 314 314 314 314 315 316 316 317 317 317 315 314 313 312 312 312 311 311 310 309 308 308 307 307 306 305 305 305 304 303 302 301 301 300 299 299 298 297 297 296 295 294 293 292 292 292 291 291 291 291 290
316 318 318 318 321 321 320 320 320 319 320 321 321 320 319 318 317 316 316 315 314 315 316 317 318 317 318 319 319 318 319 316 314 314 316 315 314 314 315 315 316 316 316 316 316 315 314 313 312 311 310 310 309 309 308 307 307 307 306 305 304 304 304 303 302 301 301 300 300 299 298 298 297 297 296 295 293 292 292 292 291 291 291 290 290 290
316 317 317 317 319 320 318 318 320 322 321 322 325 324 320 318 318 317 317 316 314 314 315 315 317 316 316 316 315 314 314 314 314 315 315 315 314 314 315 315 316 316 316 316 316 315 314 313 310 309 309 308 307 306 306 306 306 305 304 304 303 303 303 302 302 301 300 299 299 299 298 298 297 297 296 295 293 292 292 291 291 291 290 290 290 290
316 316 317 318 318 318 317 319 322 323 320 321 323 318 315 318 320 318 318 318 315 315 315 314 314 315 314 313 313 313 313 313 312 312 313 314 314 314 315 315 315 315 315 316 316 315 313 311 309 308 307 307 306 305 305 306 305 304 303 303 303 302 302 301 301 300 300 299 298 299 298 298 297 297 296 295 293 292 292 292 291 291 290 289 289 289
317 317 316 317 317 317 319 319 320 320 320 321 321 315 313 318 321 319 319 319 317 315 315 315 315 315 314 312 312 313 312 310 311 312 312 313 314 314 314 314 314 314 314 314 314 312 311 309 308 307 306 305 304 304 305 305 304 303 303 302 302 302 301 300 300 300 299 298 298 298 298 298 297 296 295 294 293 293 292 292 291 290 290 289 289 289
317 317 317 318 317 316 319 320 319 320 320 320 321 318 313 313 316 318 319 319 318 316 314 314 316 315 314 313 312 311 310 311 313 313 312 313 313 313 313 313 313 314 313 312 311 310 309 308 307 306 305 304 304 304 304 304 304 303 303 302 302 301 301 301 300 300 299 298 299 298 298 297 297 296 295 294 293 293 292 292 291 290 290 290 289 290
315 315 315 317 317 315 317 319 320 321 320 319 320 316 309 309 311 314 317 320 317 311 309 313 317 316 314 312 310 309 311 314 315 313 311 312 312 312 312 312 312 312 311 309 309 308 308 307 306 306 305 305 304 304 304 304 304 303 303 303 302 302 302 302 302 301 300 299 299 298 297 297 296 295 294 294 293 293 292 291 291 290 290 290 289 289
313 314 314 315 317 316 317 318 319 319 319 319 316 309 305 307 311 315 319 320 313 305 304 309 313 312 311 309 308 310 313 315 314 312 310 311 311 311 311 310 309 309 308 307 308 307 307 306 306 306 305 305 305 305 305 304 304 304 303 303 302 302 302 302 302 300 299 298 298 297 297 296 295 295 294 294 293 292 292 291 290 290 290 289 289 289
313 314 314 314 316 316 317 318 318 318 319 318 312 305 304 309 313 318 321 316 307 304 305 306 307 308 308 307 308 311 311 310 310 310 310 310 310 309 308 307 307 308 308 308 308 308 307 306 306 306 306 305 305 305 305 304 304 303 302 302 302 301 301 301 299 298 298 297 297 297 296 295 295 294 294 293 293 292 291 291 290 290 290 289 289 288
314 314 314 315 315 316 317 317 317 318 317 312 307 303 305 313 318 317 313 308 305 305 305 305 306 307 307 307 307 309 309 308 308 309 309 309 308 306 306 307 308 309 308 308 308 307 307 307 306 306 305 305 304 304 303 303 303 302 301 301 300 299 299 298 298 297 297 297 296 296 296 295 294 294 293 293 292 292 291 291 290 290 289 289 288 288
314 315 314 314 315 316 316 316 319 320 313 306 305 305 308 314 316 309 304 303 304 305 305 305 306 306 306 306 306 306 306 307 308 308 308 307 306 306 307 308 309 309 308 308 307 306 306 307 306 305 304 304 304 303 303 302 302 301 300 299 298 298 297 297 297 297 296 296 296 296 295 295 294 294 293 293 292 292 291 291 290 290 289 289 289 288
315 316 316 316 316 316 318 318 317 315 309 305 307 309 309 310 308 304 303 304 304 304 304 305 305 306 306 306 305 305 306 306 307 308 308 307 306 306 307 307 307 308 307 306 306 305 305 305 305 304 304 304 303 303 301 300 300 299 298 297 297 296 296 296 296 295 295 295 295 295 294 294 294 294 293 293 293 293 292 292 291 291 290 290 290 289
314 312 313 316 316 313 315 315 309 304 302 302 303 304 304 305 305 304 305 305 304 304 304 304 305 305 305 305 305 305 305 305 306 306 306 306 306 306 306 306 306 306 305 305 305 304 303 303 303 303 302 301 300 299 298 297 297 297 296 296 295 295 294 294 294 294 294 293 293 293 293 292 292 292 292 292 292 292 292 292 292 292 292 291 291 291
308 304 307 314 314 310 308 307 303 301 301 301 302 301 301 304 305 305 305 304 304 304 303 302 303 304 304 305 304 303 303 304 304 304 304 304 304 304 305 305 304 304 304 303 303 302 301 300 299 299 299 298 297 297 296 296 295 295 294 294 293 293 293 292 292 292 292 292 292 291 291 291 291 291 290 290 291 291 291 291 291 291 291 291 291 291
305 303 308 313 313 312 311 307 303 302 301 301 302 301 301 303 305 305 305 304 303 303 302 301 301 302 303 304 304 303 303 303 303 304 303 302 303 303 303 303 303 302 301 300 300 299 299 298 297 297 296 296 296 296 295 295 294 293 293 292 292 292 292 291 291 291 291 291 291 290 290 290 290 290 290 290 290 290 290 290 290 290 290 290 290 290
306 306 310 312 310 310 309 303 298 299 299 300 302 302 301 302 304 305 305 304 302 301 301 300 299 300 301 302 302 303 303 303 303 303 302 301 301 301 301 301 301 300 299 298 298 297 297 296 296 296 296 296 296 295 295 294 293 293 292 292 291 291 291 291 291 291 291 291 291 290 290 290 290 290 290 290 290 290 290 290 290 290 290 289 289 289
306 306 309 310 308 307 306 302 298 300 303 302 301 302 302 303 304 304 303 302 300 300 299 298 298 298 298 298 299 300 301 301 300 300 300 300 299 298 298 299 299 298 298 297 296 296 296 295 295 296 296 295 295 294 294 293 292 292 292 291 291 291 291 291 291 291 291 291 290 290 290 290 290 290 290 290 290 290 290 290 290 289 289 289 289 289
305 308 307 307 308 308 308 304 302 306 310 306 303 304 304 304 304 303 302 300 299 298 298 299 298 298 297 297 297 297 298 298 298 298 298 297 297 297 297 297 297 297 296 296 295 295 295 295 295 295 294 294 293 293 292 292 292 292 292 292 291 291 291 291 291 291 291 291 291 291 291 290 290 290 290 290 290 290 290 290 290 289 289 289 289 289
304 307 306 306 308 309 306 303 303 306 309 308 306 306 306 305 305 305 303 301 300 299 298 299 298 298 297 297 296 296 297 297 297 297 297 296 295 296 296 295 295 295 294 294 294 294 294 294 293 293 293 293 292 292 292 292 292 292 292 292 292 292 291 291 291 291 291 291 291 291 291 291 291 291 290 290 290 290 290 289 289 289 289 289 288 288
Wind_Speed
5 3 2 5 7 8 8 10 8 4 6 5 4 3 4 4 4 4 4 6 6 5 5 9 9 11 11 9 13 16 15 20 25 26 27 29 29 31 33 35 36 35 34 33 32 30 29 26 24 24 24 22 21 20 18 17 17 18 20 21 23 24 23 24 25 25 23 23 24 24 24 23 20 17 18 19 18 17 15 14 14 13 13 12 12 12
4 4 7 9 9 8 8 9 6 2 3 2 3 2 3 4 5 6 4 5 3 4 6 6 7 11 12 10 15 14 9 17 26 27 30 34 32 33 36 37 38 36 35 34 34 33 31 28 27 26 25 23 22 21 19 18 19 19 20 21 23 24 23 24 25 26 24 24 24 23 24 23 19 19 20 20 19 16 15 16 15 14 14 13 12 12
2 3 11 12 6 4 3 4 5 4 4 2 2 2 4 3 4 6 4 4 0 3 5 5 5 10 11 10 13 15 14 20 29 31 34 35 33 35 38 39 38 37 37 37 36 36 34 31 29 28 26 24 22 20 19 19 19 21 22 22 23 27 27 25 26 27 27 27 26 23 22 21 20 22 21 20 18 17 17 17 16 14 14 13 12 12
3 6 13 12 7 5 3 3 6 4 4 4 3 3 4 4 2 3 4 3 1 2 4 4 6 8 9 8 11 20 22 23 30 33 34 34 34 37 39 38 39 40 41 40 38 38 37 34 31 30 28 25 24 22 21 20 20 23 24 23 24 27 28 28 28 27 26 26 25 21 19 20 22 22 22 22 20 19 19 18 17 15 14 13 13 13
6 6 4 7 9 7 5 4 6 5 3 5 5 6 5 4 5 6 3 4 3 4 2 3 7 7 7 8 10 14 13 16 26 28 29 34 38 38 36 37 40 42 42 42 40 40 39 37 34 31 29 27 25 24 23 22 22 24 24 24 25 25 27 28 26 24 25 25 24 23 23 25 24 23 24 24 22 21 21 19 17 16 15 15 15 16
8 7 3 7 5 7 7 5 5 7 4 5 6 9 9 7 7 5 2 4 4 5 3 2 4 6 4 5 9 7 4 9 17 17 23 33 35 35 35 37 39 39 40 41 40 40 40 39 36 32 30 29 27 25 24 23 23 24 24 24 26 25 27 27 24 24 25 24 24 26 27 27 26 26 26 24 22 22 21 20 18 18 19 19 18 18
5 9 6 6 6 7 6 5 6 7 5 4 6 8 9 7 5 4 1 2 0 4 3 2 2 7 6 4 7 7 6 11 12 11 20 29 30 32 35 37 37 37 39 40 39 39 39 39 37 34 33 31 29 26 26 25 25 26 25 25 26 26 26 25 24 26 25 24 25 26 26 25 25 26 25 23 22 22 22 21 22 23 22 21 19 18
4 8 6 6 6 6 5 5 6 8 7 4 5 6 7 6 5 5 4 4 3 3 4 3 3 5 8 6 7 7 8 12 13 12 18 26 30 32 33 34 35 37 40 41 41 41 40 39 38 36 34 32 29 27 27 27 27 27 27 26 25 24 25 25 26 27 26 26 26 26 25 24 23 24 25 25 24 24 24 25 25 24 23 22 20 18
4 7 8 9 6 5 6 5 7 10 5 6 4 6 6 6 5 3 5 3 1 2 4 3 2 3 8 6 4 2 6 11 13 13 14 22 28 29 30 31 33 36 38 40 42 42 41 40 37 35 33 31 30 29 29 29 29 28 28 26 24 23 26 27 27 27 26 26 26 25 25 25 24 24 25 27 27 27 27 27 26 24 23 22 20 19
1 5 8 8 6 6 5 2 6 10 5 4 6 7 6 5 5 5 4 3 3 2 5 5 4 4 7 5 2 1 3 9 12 10 11 19 24 23 23 26 29 33 35 38 40 40 40 39 36 34 32 31 30 30 30 30 30 29 28 27 25 25 27 28 28 27 26 26 25 25 26 27 27 28 29 30 30 30 29 27 26 25 24 22 21 19
2 1 3 4 4 5 5 3 1 5 6 8 8 6 6 6 5 4 3 4 2 4 6 9 9 6 5 4 4 3 5 7 8 7 8 14 18 17 18 20 24 30 33 36 38 39 39 37 35 34 32 32 32 32 32 31 31 30 29 28 27 26 27 28 28 27 26 26 26 26 27 29 30 32 34 33 33 31 30 28 27 25 24 22 21 19
4 1 1 2 4 6 8 5 4 3 5 7 5 5 4 4 4 4 4 4 0 6 6 6 6 7 7 6 3 5 6 5 7 7 7 9 11 12 13 16 20 26 31 34 37 39 39 38 37 35 34 33 34 34 34 33 32 32 31 30 29 29 28 28 28 28 27 27 27 27 28 30 31 34 34 33 32 31 30 28 26 25 24 22 21 19
2 3 2 1 3 6 6 4 3 5 4 5 5 6 3 3 3 3 3 1 3 7 4 1 2 4 9 7 7 10 10 10 10 10 10 11 13 15 16 17 19 23 29 33 36 38 39 39 39 38 36 36 36 36 35 35 34 33 32 32 31 31 30 30 29 28 28 28 28 29 29 31 32 33 32 30 29 29 28 26 25 24 22 21 21 19
3 5 2 1 3 8 9 6 3 1 2 5 5 6 5 2 0 3 4 2 4 6 4 1 2 4 5 5 11 15 16 18 17 16 17 18 21 23 22 20 21 23 27 31 35 37 39 40 40 38 37 37 37 37 36 36 36 34 34 33 33 32 32 32 30 28 28 29 29 30 30 32 33 33 31 28 27 26 25 24 22 20 20 19 19 19
5 6 4 6 4 10 12 8 6 5 5 5 4 6 5 5 4 4 4 4 4 4 4 2 2 4 3 2 8 11 14 17 18 20 22 21 20 21 21 20 22 25 27 30 34 36 38 39 39 38 36 36 37 38 37 37 37 36 35 35 34 33 33 33 31 29 29 30 31 31 31 32 33 31 29 27 25 24 23 22 20 19 19 19 18 18
4 6 6 3 2 11 11 5 6 8 3 2 3 5 3 5 5 3 3 5 3 2 4 2 4 5 4 5 8 8 10 11 13 18 19 18 16 15 18 21 23 26 27 30 33 35 37 38 38 37 35 35 37 38 38 38 37 37 36 36 35 34 34 34 32 30 30 32 33 33 32 33 33 31 29 27 26 23 22 21 20 20 20 19 18 18
3 4 4 2 2 5 6 5 5 5 3 1 3 4 3 4 5 2 3 1 2 3 4 3 5 5 3 7 9 7 9 9 10 14 15 16 14 14 19 21 23 26 27 29 32 34 37 37 37 36 34 35 37 39 39 38 38 37 37 37 36 35 35 34 32 31 32 34 34 34 34 34 33 31 29 27 26 24 23 22 21 21 21 20 19 18
5 2 4 1 2 3 1 5 4 3 5 5 4 6 2 2 2 2 2 3 2 4 5 3 7 5 2 6 5 1 5 10 12 11 11 14 15 19 24 23 23 25 26 29 31 33 35 36 36 35 34 34 36 37 38 38 37 37 37 37 37 37 37 35 33 33 34 35 35 35 35 35 33 31 29 27 26 25 24 24 23 22 22 21 20 19
4 1 4 1 3 2 2 5 3 3 3 4 4 5 4 1 1 2 2 2 1 4 5 3 6 5 5 6 2 2 7 10 12 9 7 12 18 24 29 27 24 25 26 29 31 33 35 35 35 34 33 34 34 36 37 37 37 38 38 37 37 38 37 35 34 35 35 36 36 36 36 35 34 32 30 28 27 26 25 25 24 23 22 22 21 20
4 3 3 1 1 1 2 3 4 2 1 4 3 3 2 2 4 3 3 3 3 3 4 3 2 4 7 7 7 9 11 10 10 7 7 13 21 28 31 29 26 27 28 29 31 33 34 33 33 33 32 33 34 35 36 37 38 38 39 39 38 39 38 36 36 36 37 37 37 37 36 36 34 33 31 29 28 27 26 25 24 24 23 23 22 21
2 3 3 1 2 1 2 4 8 10 6 3 4 4 2 1 2 1 1 2 3 3 3 4 5 6 5 5 9 12 11 10 9 8 8 15 23 28 29 29 29 29 29 29 30 32 32 32 32 32 32 32 32 33 35 37 39 39 40 40 41 41 40 39 38 38 39 39 39 38 38 37 36 34 32 30 29 27 26 26 25 24 24 23 22 21
3 3 4 2 2 4 5 4 5 8 7 6 7 8 8 6 4 2 3 1 2 3 4 3 7 8 4 4 7 9 8 9 11 10 10 16 23 27 27 27 29 29 28 28 29 31 30 30 31 32 32 32 33 34 35 38 40 41 42 42 42 43 42 41 41 41 41 41 41 40 39 38 37 35 34 32 30 29 28 27 26 26 25 24 23 21
5 3 3 3 4 5 6 4 2 4 3 3 3 5 5 5 5 5 5 4 2 3 3 2 6 9 4 5 7 7 7 9 11 12 13 18 23 25 25 25 26 27 25 25 29 29 29 29 30 31 32 32 33 35 36 39 42 43 43 43 44 45 44 42 42 43 43 43 42 41 40 39 38 36 35 33 32 31 29 28 28 27 26 25 24 22
4 3 3 1 2 3 4 4 4 2 3 3 2 3 6 7 8 6 5 4 3 5 4 2 6 8 3 1 2 4 6 7 9 12 16 21 25 25 25 24 24 24 22 24 28 29 28 29 31 32 33 33 35 36 38 40 42 44 44 44 46 46 44 44 43 44 44 44 43 42 41 40 38 37 36 35 33 32 30 30 29 28 27 26 25 24
7 3 3 3 1 3 3 3 3 2 2 4 4 5 8 10 8 3 0 3 3 9 8 5 9 8 2 5 4 4 5 6 10 13 16 20 24 25 24 23 23 23 21 23 27 29 29 31 33 34 34 35 37 38 40 41 43 45 46 46 47 46 45 45 45 45 45 45 44 43 42 40 39 39 37 36 34 33 32 31 30 30 28 28 27 25
10 4 6 7 7 8 7 6 5 3 3 2 4 6 8 10 12 7 2 4 9 8 8 8 12 7 1 4 5 4 3 5 10 14 16 19 22 23 23 23 24 24 23 24 27 30 31 32 34 35 35 36 38 39 41 43 44 46 46 46 46 46 46 46 46 46 46 46 46 45 43 42 41 40 39 37 35 34 33 32 32 31 30 29 28 27
4 3 11 12 13 14 11 6 6 8 7 6 8 11 12 13 13 9 6 9 8 1 3 12 13 10 10 5 5 7 5 5 10 12 16 18 20 22 23 24 25 24 24 24 26 30 32 33 34 35 35 37 38 39 41 43 45 46 46 46 47 47 47 47 47 47 48 47 47 46 44 44 43 41 39 37 36 35 34 34 33 32 31 31 30 29
3 4 13 15 16 17 13 7 10 12 13 14 13 14 15 16 14 13 14 12 5 4 11 15 8 11 20 11 9 11 7 6 9 11 17 20 21 23 24 23 24 23 24 25 27 31 33 35 36 36 36 38 39 40 41 42 44 45 45 46 47 47 48 48 48 48 48 48 48 47 45 44 43 41 39 38 36 36 35 35 34 33 33 32 31 30
3 6 12 14 16 19 16 9 11 12 12 12 15 16 17 18 17 20 22 15 7 7 20 17 9 13 23 13 11 13 10 13 16 18 22 23 22 23 22 22 25 25 25 27 29 32 34 36 38 38 38 39 40 41 41 42 43 44 45 46 47 48 49 49 49 49 49 49 49 48 46 44 43 41 40 39 38 37 37 36 36 35 34 33 32 31
3 7 10 12 14 17 17 9 11 12 10 8 13 16 17 21 24 24 23 18 13 15 23 20 11 18 19 8 8 12 17 23 24 22 23 23 23 24 23 25 27 28 29 30 32 34 35 37 39 40 39 40 41 42 41 42 43 44 45 47 48 49 50 50 50 50 50 50 49 48 46 45 44 42 41 41 40 39 38 37 37 36 36 35 33 32
2 4 4 7 9 13 15 9 9 12 11 10 12 14 18 22 22 19 17 15 14 17 22 20 17 20 12 5 8 12 15 19 20 19 22 25 27 27 26 28 31 31 32 33 34 37 37 37 39 41 42 41 41 41 42 42 43 44 45 47 48 50 50 50 51 50 50 50 48 48 47 45 44 43 42 42 40 39 39 38 38 37 36 35 34 33
2 2 1 4 6 12 12 8 8 9 9 10 14 19 23 20 13 12 14 14 15 17 19 16 16 18 9 5 9 11 10 13 16 19 25 28 30 29 29 32 34 33 34 35 37 39 38 38 40 41 43 43 41 42 43 43 44 44 46 47 49 50 51 51 51 50 50 49 48 48 47 45 44 43 43 42 41 40 40 39 39 38 37 37 35 34
4 4 1 4 6 10 7 8 9 6 4 8 17 22 21 14 10 11 14 15 17 16 15 13 15 19 12 6 8 9 8 11 17 23 29 30 31 31 32 33 35 35 36 36 38 39 39 40 41 41 43 44 43 42 42 42 43 44 45 47 48 50 50 50 50 49 49 49 48 48 47 45 45 44 43 42 41 41 40 40 39 39 38 37 36 36
4 5 4 4 5 9 5 9 7 4 7 11 11 11 14 15 16 17 16 17 17 15 14 15 17 20 13 7 10 11 10 15 24 31 35 33 31 31 32 35 36 37 37 37 37 39 40 41 42 41 41 44 44 42 41 42 43 43 45 47 48 49 49 48 48 48 48 48 48 47 46 45 44 43 42 42 41 41 41 40 40 39 38 38 37 37
7 7 5 3 3 4 4 8 5 8 11 9 3 1 8 14 17 18 18 19 19 17 18 20 20 21 17 13 16 18 20 25 30 34 34 31 30 31 33 37 38 36 36 36 36 39 40 41 41 39 39 42 44 42 41 42 42 43 44 45 45 46 46 46 46 46 47 47 46 45 44 44 43 43 42 41 41 41 40 40 40 39 39 39 38 37
9 8 3 2 3 2 3 6 9 7 4 7 5 0 2 4 7 10 13 17 19 19 19 20 22 23 21 21 25 27 27 28 28 32 33 30 30 33 35 37 37 35 35 35 37 40 39 38 37 36 37 41 42 40 38 38 39 40 40 40 40 40 41 42 43 44 45 45 44 43 42 42 42 42 42 41 41 41 40 40 40 40 40 39 38 37
9 8 4 4 5 4 5 8 7 5 8 12 9 5 6 6 8 10 9 14 18 19 18 17 20 22 20 24 32 31 24 17 17 27 37 35 35 37 36 36 35 34 34 35 36 36 34 31 31 31 34 35 35 34 33 33 34 34 33 33 33 34 35 37 38 40 42 42 41 39 38 39 40 41 41 41 41 41 40 40 40 40 39 39 38 38
7 8 8 8 6 5 7 8 5 5 11 14 8 7 10 11 11 11 8 11 12 13 16 16 17 19 18 21 26 20 10 6 8 19 30 31 30 32 32 33 34 33 34 33 30 26 24 24 25 26 28 28 27 26 26 25 25 24 25 26 27 28 30 31 32 35 37 36 34 33 33 35 37 38 38 39 39 40 40 40 40 39 38 38 38 37
6 4 6 8 5 5 6 7 6 8 10 7 4 5 8 11 12 11 4 9 6 5 13 16 15 18 18 18 15 7 4 4 9 15 20 18 16 20 24 27 29 30 29 24 18 15 15 17 19 19 19 18 17 17 16 16 16 18 20 22 23 24 25 25 27 28 28 27 25 26 27 28 31 33 35 36 37 38 38 39 38 38 37 37 37 37
7 4 4 6 7 7 8 7 5 6 6 4 5 5 7 13 16 11 2 8 4 4 8 13 16 17 15 11 7 8 7 9 10 13 14 11 9 13 17 19 20 19 16 12 9 10 10 11 13 14 13 13 13 13 14 15 16 17 18 18 19 19 19 19 20 21 19 19 19 20 21 23 25 27 29 30 32 32 34 35 36 36 37 37 37 37
6 5 5 7 9 9 10 8 4 4 5 5 7 10 14 15 11 7 7 6 7 5 5 9 15 16 12 9 9 9 12 15 14 13 11 8 9 11 12 11 9 8 9 10 10 11 11 11 12 13 14 14 14 14 14 14 14 13 13 14 15 14 13 14 15 14 14 14 15 16 17 18 20 22 23 24 25 27 29 31 32 33 34 35 35 35
5 4 4 7 8 7 7 7 4 5 5 7 10 13 15 10 4 8 6 7 9 7 3 4 7 8 8 12 15 14 13 12 11 9 7 7 9 9 9 9 10 12 12 13 14 14 15 16 15 15 14 13 13 12 11 10 9 9 11 12 12 10 10 11 12 12 12 13 13 14 15 16 17 18 19 20 22 24 25 27 28 30 31 32 33 33
7 6 4 6 6 4 4 6 5 6 5 17 17 8 6 5 4 7 9 8 8 6 4 3 3 2 4 8 11 11 9 7 7 7 6 8 8 9 10 10 11 13 14 14 15 14 14 13 13 13 11 10 9 8 7 8 9 11 12 11 9 10 11 12 13 13 12 12 12 13 13 14 14 15 16 18 19 20 21 23 24 26 27 28 29 30
5 6 4 5 5 5 5 7 5 3 7 21 16 3 5 7 6 10 11 7 6 6 4 4 4 4 6 6 8 11 10 8 9 9 9 10 10 10 11 11 12 13 13 13 13 12 11 10 9 10 8 7 7 8 9 10 11 12 12 11 11 13 13 12 12 12 12 12 12 12 11 12 12 13 14 15 16 18 19 20 22 23 24 26 27 28
4 3 3 3 4 3 3 5 2 1 6 13 5 2 8 12 9 10 9 7 7 6 4 4 4 5 6 7 9 11 10 9 10 10 10 12 12 11 12 13 13 13 12 12 11 11 10 8 7 8 9 9 10 11 12 12 11 11 12 12 12 12 11 11 11 11 11 11 11 10 11 11 11 12 13 13 15 16 17 18 20 21 23 24 25 27
0 0 2 2 2 1 1 3 2 0 4 9 5 3 11 14 10 9 8 6 7 6 5 4 3 4 6 8 9 10 10 10 10 10 11 13 13 14 14 14 14 13 12 12 12 11 11 9 9 10 11 13 14 14 14 14 13 12 12 11 11 10 10 10 10 10 10 10 10 10 10 10 10 10 11 12 13 14 15 17 18 19 21 23 24 26
2 1 2 2 3 4 2 3 4 2 5 9 8 7 11 12 10 9 7 6 6 6 5 6 5 5 6 7 7 8 10 10 9 8 10 11 11 12 13 13 13 13 12 11 11 10 11 11 12 12 13 15 16 16 15 15 13 12 11 10 9 9 9 9 9 9 9 9 8 8 8 8 8 9 10 11 12 13 15 16 18 19 21 22 23 24
3 5 3 1 4 4 2 4 4 3 6 10 10 10 13 13 10 8 7 6 6 6 7 7 7 7 8 7 7 8 9 9 8 9 10 9 8 9 10 11 12 13 12 11 10 10 11 11 12 13 13 14 14 14 13 12 11 10 9 8 8 8 8 8 9 9 9 9 9 9 9 10 11 11 12 14 15 16 17 18 20 21 23 24 25 26
5 6 4 2 2 1 3 4 4 3 5 10 13 14 16 14 11 10 9 7 7 8 8 8 8 8 8 8 8 8 8 9 9 9 9 10 10 9 10 12 12 13 13 13 12 12 11 11 11 12 12 12 12 12 11 10 9 9 9 8 8 7 7 8 8 9 10 10 11 11 12 13 14 15 16 18 19 20 21 22 24 25 26 27 29 30
5 5 3 3 4 4 4 6 9 4 2 9 17 20 20 17 13 11 10 9 9 9 8 8 8 8 7 7 8 8 8 9 9 9 9 10 11 11 12 13 14 14 14 14 14 13 12 11 11 11 10 10 11 10 10 10 9 9 8 8 8 7 7 8 8 9 9 10 11 12 13 14 15 17 18 19 21 22 24 25 27 28 29 30 31 32
6 6 6 5 4 4 5 12 17 9 2 6 15 20 21 21 17 14 12 11 11 10 9 8 6 6 6 6 6 7 7 8 9 10 10 10 11 12 13 13 14 14 14 13 13 13 12 12 11 10 9 9 9 9 9 9 9 9 9 9 9 9 10 10 10 10 11 11 12 13 14 15 17 18 19 20 21 22 23 24 25 27 28 29 30 31
Wind_Direction
143 123 163 198 208 203 198 198 201 170 136 137 139 141 181 199 263 258 265 264 181 158 247 227 231 254 256 259 260 250 222 221 236 241 242 239 236 233 232 234 236 236 236 231 226 225 224 223 223 225 227 225 224 227 226 222 221 215 212 210 201 199 199 196 196 199 201 200 202 207 210 215 218 210 197 190 192 199 200 188 181 181 181 181 179 179
131 165 221 220 211 199 198 206 210 166 136 137 144 213 250 210 251 255 251 285 196 172 262 247 239 259 257 256 264 254 209 221 234 236 241 241 237 236 235 236 236 236 235 231 227 225 224 221 219 222 225 224 225 227 226 220 218 215 212 210 202 197 197 196 197 196 194 196 202 206 212 218 211 191 187 191 193 195 188 177 177 180 178 178 180 182
123 218 239 231 201 167 197 189 186 217 227 239 174 194 262 241 267 280 277 309 110 178 262 273 256 261 260 259 264 251 224 232 241 240 245 245 240 237 237 236 234 232 232 230 227 225 224 221 218 221 224 225 226 226 226 220 215 211 209 209 201 194 194 194 197 199 198 199 204 212 218 215 199 186 188 193 191 186 180 177 178 180 181 185 189 191
171 246 245 224 172 144 219 182 148 192 240 239 196 171 243 251 257 276 285 310 329 213 257 281 277 268 264 264 263 254 244 244 250 250 251 251 246 244 243 242 237 234 231 228 225 224 224 221 219 221 223 224 223 222 224 220 214 211 209 208 200 195 196 197 200 203 201 201 203 206 206 199 195 193 192 193 191 187 183 179 178 183 187 189 190 184
207 244 233 173 161 166 202 201 155 168 238 246 212 196 219 227 215 227 278 323 333 323 321 320 299 278 253 248 254 261 256 252 254 253 252 253 251 250 248 245 241 237 234 230 226 224 223 222 221 220 221 222 221 221 223 221 215 213 210 205 201 198 196 200 204 200 195 197 196 192 192 193 196 198 196 196 196 189 182 178 177 181 179 173 171 163
233 238 138 116 146 171 187 214 189 174 209 259 228 205 205 201 213 231 355 19 4 327 327 16 297 281 270 249 255 275 303 267 257 247 246 252 253 249 244 242 239 235 234 232 229 227 225 223 220 218 219 221 222 221 222 219 213 213 211 204 202 201 199 205 206 197 196 199 194 192 195 199 201 201 199 200 198 184 175 174 172 168 162 159 159 155
230 225 192 138 148 161 183 227 219 178 171 251 239 200 193 183 200 231 153 85 291 263 290 65 202 272 292 250 245 259 266 265 262 251 251 254 254 249 245 242 238 233 230 229 229 227 225 223 220 219 220 222 224 221 218 215 210 210 211 207 208 209 208 209 201 194 199 198 196 200 204 208 209 203 196 192 188 176 168 168 164 159 155 156 158 157
188 205 204 172 163 159 180 223 223 172 154 236 239 161 159 167 189 211 171 178 229 258 313 21 118 271 282 250 238 241 250 265 266 263 263 260 256 253 249 244 238 235 232 229 227 226 225 225 223 224 224 223 223 219 215 213 210 210 211 211 215 213 208 204 197 197 202 202 204 208 209 209 208 203 190 179 175 170 166 164 161 159 157 157 160 161
161 181 195 181 179 192 200 218 190 158 163 243 206 122 130 150 152 133 127 167 321 6 297 302 111 259 273 262 271 254 244 264 265 257 259 261 259 258 253 247 240 237 235 232 231 229 226 225 224 225 225 223 220 217 215 213 211 210 211 213 215 209 203 202 203 205 207 209 210 207 202 199 198 197 186 174 169 166 165 165 163 162 161 161 163 163
147 187 196 172 178 208 206 228 176 169 193 194 131 89 69 74 77 74 95 108 35 339 244 221 174 236 270 250 235 326 238 250 260 257 255 261 265 266 261 251 241 235 233 231 232 232 229 226 223 223 222 221 219 216 214 213 211 209 209 209 209 206 203 204 207 209 210 209 204 197 194 193 191 189 180 170 167 166 167 169 166 166 166 164 165 163
330 136 197 173 185 184 142 74 99 171 162 127 101 61 44 30 37 45 50 78 38 279 238 213 194 200 270 262 197 210 224 219 237 258 263 265 268 271 269 257 243 236 232 230 229 228 227 223 220 220 220 219 217 215 213 212 211 208 207 206 207 206 205 205 207 208 207 203 196 192 191 191 188 183 177 171 170 170 171 173 170 169 168 166 166 164
342 64 236 213 169 133 106 71 36 66 116 111 86 74 64 347 7 22 358 47 254 256 247 234 194 178 233 259 229 243 255 228 219 234 251 262 270 276 276 266 250 239 233 229 226 225 222 218 216 216 217 216 215 214 212 211 210 207 206 206 205 205 205 206 207 207 204 198 193 191 190 190 188 183 179 176 175 175 175 176 174 171 170 169 168 167
306 236 272 314 180 160 123 87 37 22 50 89 96 106 106 308 348 348 307 62 232 252 267 280 129 190 235 249 256 263 269 253 233 229 237 252 271 281 282 272 257 242 234 229 225 223 220 216 215 215 215 214 213 214 212 211 209 207 206 205 204 205 206 207 209 208 204 197 192 190 189 189 188 185 182 181 180 179 178 179 178 175 175 175 172 170
260 297 307 106 244 199 169 156 173 229 154 146 139 141 153 172 222 274 264 266 262 266 296 348 147 247 270 257 240 241 249 254 257 260 261 266 272 276 277 268 254 241 235 230 226 224 221 218 216 216 216 214 213 213 213 211 209 207 205 204 204 206 208 209 211 209 203 197 191 189 188 188 188 187 185 185 185 182 180 181 182 182 181 179 176 171
213 287 209 182 205 187 185 189 167 137 155 182 149 139 156 157 176 223 214 224 256 279 299 301 185 211 210 248 242 239 255 265 269 270 270 274 273 270 266 256 244 237 232 229 226 225 223 220 218 217 217 216 214 213 213 212 210 207 205 205 205 207 210 211 210 208 202 196 190 187 186 188 189 190 188 187 188 186 183 182 183 183 181 179 176 172
197 267 233 213 161 168 182 185 129 109 136 233 109 118 178 179 178 224 206 182 189 290 289 235 226 223 207 261 269 261 274 281 275 270 269 273 271 263 255 245 237 233 229 227 226 225 223 221 220 219 218 218 216 214 214 213 212 209 206 205 206 209 212 211 209 205 199 195 190 185 186 189 191 192 191 189 188 187 184 183 184 182 180 179 178 175
168 277 276 353 49 174 177 158 140 143 173 168 131 172 205 172 154 201 268 63 91 261 265 205 245 287 306 277 272 252 257 274 275 268 266 269 269 262 252 241 234 231 227 227 228 226 225 222 220 220 219 220 217 215 214 214 213 210 207 206 207 209 211 211 209 203 198 195 191 187 187 190 193 194 193 191 189 187 184 184 185 184 182 181 181 180
158 252 283 123 166 252 100 105 84 77 129 128 182 199 159 65 100 120 256 347 36 253 267 225 239 268 270 270 308 71 226 255 259 254 261 268 263 258 255 246 236 231 227 228 228 227 227 224 222 221 220 222 220 217 216 215 214 211 209 209 209 210 209 208 208 203 198 196 193 190 189 191 194 195 194 193 191 190 187 187 187 186 185 184 185 185
152 201 291 109 172 260 58 102 72 26 109 127 178 179 124 119 204 118 171 233 206 251 281 268 241 237 209 227 285 167 207 239 252 245 251 257 249 250 254 250 240 231 226 227 228 228 227 225 224 223 222 222 221 219 217 216 215 211 210 211 212 212 210 208 208 204 200 197 195 194 191 192 195 196 195 195 194 194 192 191 189 189 189 189 189 189
156 192 259 291 176 277 48 130 175 204 54 55 91 144 109 144 178 163 169 174 168 230 278 293 266 240 222 209 201 208 212 221 241 240 233 245 246 248 252 252 245 235 230 231 232 231 228 226 225 225 225 224 221 219 217 216 215 213 211 211 211 212 212 211 209 205 201 198 197 197 195 193 195 197 197 197 197 196 195 194 194 193 194 194 193 192
142 205 229 295 340 172 192 199 186 184 173 137 148 170 188 164 116 169 214 132 136 185 242 278 277 258 235 203 191 205 215 211 217 226 231 245 253 256 256 254 251 243 235 236 237 234 229 227 226 225 225 225 222 220 219 217 216 214 213 213 211 211 212 211 208 205 202 199 198 198 197 196 196 198 199 198 198 198 197 197 198 197 197 197 197 196
186 195 171 166 218 203 223 252 214 195 185 174 183 188 188 178 135 165 248 215 150 198 191 216 270 263 227 195 194 199 208 208 208 213 230 248 257 262 262 260 258 250 240 239 241 237 232 228 226 225 223 222 221 220 219 217 215 214 214 213 211 211 211 211 208 205 203 201 200 200 199 198 198 199 200 199 198 199 199 200 200 200 200 200 201 201
159 114 133 174 217 217 240 276 267 213 171 132 191 191 176 178 154 163 225 225 184 234 190 141 275 273 240 187 194 200 208 215 215 212 226 250 260 263 264 265 264 257 246 242 242 240 236 231 228 226 223 221 220 219 218 217 215 215 215 213 212 211 211 211 209 206 204 203 202 201 200 201 200 200 201 201 200 200 200 202 202 202 203 203 205 206
133 121 155 193 318 314 306 323 358 35 108 114 238 181 168 199 193 180 206 186 180 233 190 136 264 270 285 257 232 252 249 241 237 225 229 248 260 263 264 267 267 262 251 242 241 241 238 234 229 226 224 221 220 219 218 217 216 215 215 214 213 212 212 211 210 208 206 205 203 202 202 202 202 203 204 203 202 202 202 203 204 205 205 207 209 211
171 177 151 146 288 327 329 320 325 315 179 193 225 198 190 201 192 191 137 111 242 233 178 182 251 244 279 316 324 325 296 272 255 243 239 248 260 264 264 266 267 265 257 244 240 239 236 234 230 226 224 221 220 220 218 217 216 215 214 214 214 213 213 212 210 209 208 206 205 204 203 204 205 206 206 205 204 204 204 205 207 208 208 210 212 214
171 179 162 175 210 217 217 220 209 191 172 197 219 195 199 202 190 199 212 189 240 231 159 200 246 241 270 311 307 300 297 284 260 250 247 249 256 262 263 264 264 262 259 249 240 237 236 235 233 228 225 223 221 221 220 218 217 216 215 215 215 215 214 212 211 210 209 208 207 206 206 206 207 208 208 207 206 206 207 208 210 210 212 215 216 217
143 191 187 195 212 217 222 212 150 134 154 201 208 188 198 209 197 196 220 219 224 184 189 226 236 258 266 248 259 265 243 247 256 249 246 246 251 257 257 259 260 259 257 251 242 238 237 236 235 231 227 224 223 223 222 220 218 217 216 216 216 216 215 213 212 211 210 210 209 209 209 209 210 210 210 210 209 209 209 211 213 214 216 218 219 220
93 196 201 208 217 223 231 206 152 154 179 199 199 191 202 209 196 199 219 221 165 115 254 244 198 247 261 239 230 251 233 233 249 241 245 249 249 253 255 255 256 256 254 250 245 243 240 238 235 231 228 226 225 225 224 222 221 219 218 218 217 216 216 215 214 213 212 212 211 212 212 212 212 212 211 212 212 212 212 213 215 217 220 221 222 223
125 198 206 213 221 230 235 205 162 175 192 197 197 197 203 203 200 209 218 218 164 184 251 253 173 223 256 247 227 233 215 225 239 238 246 252 250 250 250 251 255 255 252 250 251 248 245 241 237 232 229 226 226 227 225 223 222 221 220 220 219 218 217 216 216 216 215 214 214 214 215 214 214 213 213 214 214 214 214 216 218 220 222 223 225 226
172 202 204 205 218 236 238 204 164 184 200 204 206 204 205 205 207 212 217 217 205 216 245 254 235 244 255 234 214 222 216 229 241 243 245 248 247 247 246 248 253 255 253 255 257 255 250 246 241 234 230 228 226 227 226 224 223 222 221 221 220 220 219 218 218 218 218 218 217 216 216 216 216 215 215 216 216 217 217 218 220 222 224 225 226 228
198 212 190 179 208 241 240 204 166 188 202 213 222 219 217 216 213 213 218 218 216 229 245 252 257 261 252 190 225 235 219 228 242 244 241 243 244 244 243 247 251 252 254 258 260 257 252 247 242 236 232 230 228 227 226 226 225 224 223 223 222 221 221 220 220 220 221 221 220 219 218 218 218 218 218 218 219 219 219 220 222 224 226 227 228 229
164 218 52 128 197 238 235 191 177 203 211 225 237 233 225 221 214 211 216 214 208 222 240 246 254 258 244 192 242 240 208 217 233 237 240 244 244 243 242 245 248 251 255 259 260 258 252 248 245 241 236 231 228 227 226 225 225 224 224 224 223 223 222 222 223 223 223 223 222 221 221 220 221 220 220 221 221 222 222 223 224 226 227 229 230 232
147 161 152 147 198 244 235 157 167 199 216 238 242 237 228 216 202 209 222 223 211 211 227 232 239 250 243 196 229 235 202 214 232 237 242 245 245 245 245 247 251 254 257 261 261 259 257 254 253 250 242 232 227 228 227 226 226 226 226 226 225 224 224 224 224 225 225 225 225 224 223 223 223 223 223 223 224 224 224 225 227 228 230 232 233 235
163 176 192 169 196 240 208 131 135 192 220 236 241 229 220 207 201 210 222 225 217 212 225 234 241 253 250 201 216 234 223 228 241 247 250 251 248 247 249 252 255 258 259 262 263 262 261 258 254 250 245 235 230 228 228 227 228 227 227 226 225 225 225 225 226 227 227 227 227 226 225 225 226 226 227 226 226 226 227 228 230 231 233 234 236 237
172 185 194 170 194 232 151 120 167 216 222 248 297 139 212 206 200 210 222 227 223 217 228 241 249 255 252 235 236 245 245 247 252 255 256 255 253 252 253 255 258 260 262 264 266 265 263 258 252 248 244 237 231 228 227 227 228 228 228 228 227 227 228 228 228 229 229 229 229 229 228 229 229 230 230 229 229 229 230 231 233 234 235 237 238 240
172 178 180 156 170 183 124 169 217 237 275 291 299 18 177 154 164 199 229 239 231 221 223 233 242 250 253 251 250 252 256 260 264 264 260 257 256 255 255 257 259 261 264 266 266 265 262 257 252 248 242 236 230 228 228 229 230 231 231 232 232 232 232 232 233 233 233 233 233 234 234 234 234 233 232 231 231 232 233 234 235 236 237 239 241 243
171 173 180 190 192 195 201 215 238 302 305 277 258 194 162 155 157 175 219 246 236 223 220 224 237 247 251 254 255 256 262 273 278 271 266 261 258 257 257 259 261 261 263 263 263 263 261 258 253 247 240 236 232 231 231 231 232 233 234 236 237 237 237 237 238 239 238 238 239 240 240 240 238 237 235 234 234 235 237 238 238 239 239 241 243 246
183 182 182 198 206 195 212 233 241 248 257 258 242 179 175 184 174 162 199 251 246 222 210 211 233 245 244 252 256 253 258 284 278 270 271 269 263 259 259 260 259 260 260 261 262 262 259 253 247 241 238 236 235 234 232 232 233 234 236 237 236 236 235 236 238 239 239 240 242 244 245 244 243 241 239 238 239 240 240 241 241 242 242 244 247 250
208 197 178 195 201 181 204 228 220 225 246 246 199 176 177 173 152 130 179 252 255 200 192 196 220 236 238 245 243 200 162 244 256 265 277 285 279 266 260 257 255 256 256 256 255 250 243 239 234 230 229 227 226 226 223 223 224 224 227 229 228 229 231 233 235 236 238 240 242 244 246 247 247 246 244 244 244 244 245 245 246 246 246 248 250 253
210 198 183 201 204 197 206 219 220 238 251 215 182 199 177 154 137 119 211 248 223 159 183 197 217 233 237 235 203 156 176 223 247 272 287 295 281 259 251 250 250 250 243 228 213 210 215 219 214 205 198 194 191 191 192 195 200 206 213 217 220 226 231 234 235 235 237 241 242 243 245 245 247 248 247 248 249 249 249 250 249 249 250 251 253 255
206 200 193 205 211 208 211 222 241 252 235 198 182 176 155 139 139 175 226 216 169 164 196 213 229 244 245 221 192 194 221 233 250 277 286 274 252 237 227 223 215 200 187 177 173 176 177 176 172 168 167 167 168 171 176 182 189 196 204 211 219 228 233 235 234 233 233 234 234 236 239 240 243 246 247 249 251 251 252 252 251 252 253 254 256 257
194 196 195 206 209 211 216 219 237 259 224 155 150 160 153 142 189 215 187 127 135 152 163 197 225 246 240 220 214 222 234 235 242 259 256 233 226 209 187 175 163 157 158 158 156 158 160 159 156 156 158 158 159 166 171 178 189 200 211 220 224 225 221 218 216 215 215 218 220 225 230 234 239 243 245 248 249 250 251 252 252 253 254 255 257 257
177 173 189 205 192 186 220 204 212 266 187 139 133 146 181 194 201 159 135 124 134 131 116 148 176 166 186 207 210 209 212 205 198 202 195 191 193 180 167 161 158 158 157 155 154 155 156 157 154 153 155 156 162 175 188 200 213 218 220 219 207 194 194 193 194 197 200 204 210 216 222 229 234 238 241 243 245 247 249 250 252 253 254 255 256 257
182 177 189 206 182 167 203 205 207 274 170 151 141 141 197 182 137 118 125 136 142 128 111 114 126 142 165 181 181 177 179 178 176 178 176 176 177 173 166 161 160 161 158 156 156 153 152 157 156 154 161 174 189 204 208 210 211 205 194 183 174 176 181 181 183 189 194 200 207 213 218 224 228 232 237 239 243 246 248 249 251 252 253 254 254 255
201 181 158 183 189 171 197 208 213 344 173 170 161 51 145 152 133 119 121 121 131 136 117 103 124 147 157 164 168 167 165 164 164 167 171 171 169 167 165 162 163 164 159 155 155 152 150 155 160 165 176 183 187 190 185 177 174 168 162 160 164 171 174 178 185 191 196 202 206 209 214 219 224 230 236 239 243 246 247 250 251 251 252 253 254 255
262 152 106 118 183 217 242 189 177 270 196 189 190 143 147 147 137 131 127 119 127 129 113 113 134 147 152 163 166 159 154 151 148 150 158 162 163 165 167 165 164 163 159 156 155 153 152 156 164 173 177 174 169 164 157 151 148 150 156 162 168 174 181 187 192 195 196 200 204 206 212 220 225 232 238 242 247 249 250 252 253 253 254 255 255 256
302 195 101 90 171 190 205 184 178 214 216 194 188 182 168 157 145 142 142 133 130 128 126 126 121 127 147 163 170 166 161 156 153 157 161 162 164 166 165 164 161 155 152 152 152 153 158 163 165 165 165 163 158 153 153 155 156 159 167 174 180 188 195 196 196 198 198 203 210 216 224 233 238 245 251 254 257 259 259 259 259 258 258 258 258 260
202 160 142 181 198 191 215 221 223 267 242 212 204 197 185 175 166 161 155 144 136 135 137 133 124 127 136 139 147 160 162 159 164 172 171 170 172 169 163 162 160 154 152 153 153 154 158 160 158 156 157 158 158 158 161 163 165 171 179 187 194 201 206 207 208 211 212 218 227 233 241 248 252 256 259 260 262 263 263 264 264 264 264 265 265 265
137 153 166 160 160 231 277 232 222 300 272 232 222 209 195 191 189 176 158 148 146 143 142 139 129 125 128 126 128 141 151 153 157 164 171 175 179 179 173 167 163 161 159 155 150 147 148 150 152 152 154 158 161 163 166 169 174 180 186 194 202 207 212 217 221 224 227 231 237 243 248 253 257 259 261 262 263 263 264 265 265 265 266 266 266 266
136 166 170 114 151 225 245 180 168 161 245 222 217 210 198 195 199 189 170 160 155 149 148 149 140 129 130 131 130 136 149 156 156 159 169 178 181 179 175 167 161 157 154 148 144 142 142 145 149 151 154 160 164 168 175 182 189 195 200 207 212 217 224 230 234 237 241 245 249 253 257 260 263 265 266 266 266 265 265 266 266 266 267 267 267 268
171 177 173 158 181 229 212 179 177 175 128 192 208 211 205 202 204 199 187 181 174 161 154 157 155 145 143 146 147 148 152 160 163 163 169 178 178 169 161 157 153 150 147 145 145 146 146 149 155 158 161 170 177 185 195 203 209 214 219 222 226 230 234 238 242 245 248 252 254 258 262 265 267 270 271 272 272 272 271 270 269 269 270 270 270 270